Location: Battery Park City
(40.7115°N, 74.0163°W)
Time: 13:12:20
(UTC+00:00)

COSMO-SKYMED 1 - Pass Details

Date: 08 December 2019
Orbit: 621 x 623 km, 97.9° (Epoch: 28 January)

Event Time Altitude Azimuth Distance (km) Brightness Sun altitude
Exits shadow 23:22:45 12° 3° (N) 1,854 4.8 -21.0°
Maximum altitude 23:26:39 57° 286° (WNW) 733 3.1 -21.7°
Drops below altitude 10° 23:30:53 10° 208° (SSW) 1,986 5.6 -22.5°
Sets 23:33:05 0° 204° (SSW) 2,887 6.5 -22.9°
